Temp
8 8 9 9 10 12 13 14 14 15 15 15 15 16 16 17 18 18 19 19 19 20 20 21 21 21 21 21 21 20 16 17 19 18 20 21 20 22 22 21 20 21 21 21 20
8 8 9 10 11 13 14 14 14 14 14 15 15 16 16 17 18 19 19 19 19 19 20 20 20 20 20 20 20 18 15 17 18 18 19 21 21 21 21 19 19 20 21 21 19
9 10 11 11 12 13 13 14 14 14 14 15 15 16 16 17 18 19 19 19 19 19 19 19 19 19 20 20 20 17 16 17 20 21 21 20 19 21 20 17 21 23 23 21 20
11 11 11 12 13 13 13 14 14 14 14 15 15 16 16 17 19 19 19 19 19 19 19 19 19 19 18 18 19 19 19 19 21 21 21 19 20 19 20 23 24 24 23 22 21
12 12 12 13 13 13 13 14 14 14 15 15 16 16 17 17 18 19 19 19 19 19 19 18 19 19 18 18 19 18 18 20 21 21 21 20 20 19 20 23 23 23 22 21 21
12 13 13 13 13 14 14 14 15 15 15 16 16 16 17 16 18 18 19 19 18 18 18 18 18 18 18 18 18 19 19 19 20 20 20 19 19 19 21 23 22 22 22 22 22
13 13 13 13 14 14 15 15 15 15 16 16 16 16 17 19 18 19 19 19 18 18 18 18 18 18 18 17 19 19 17 16 17 18 18 19 16 15 20 22 22 22 22 21 22
13 13 14 14 14 15 15 15 15 15 15 15 16 16 18 18 18 18 18 18 18 18 18 17 18 18 18 18 18 17 17 16 16 16 18 19 17 16 21 20 21 21 21 21 21
14 14 14 15 15 15 16 16 16 16 16 16 16 16 18 18 18 18 18 17 17 17 17 17 17 17 18 14 14 12 14 14 14 15 17 16 15 16 20 18 18 20 21 21 21
15 15 15 15 16 16 16 16 16 16 16 16 16 16 18 18 18 18 18 17 17 17 17 17 17 13 10 13 13 13 13 13 14 16 15 14 13 15 18 17 18 20 19 19 20
15 15 15 16 16 16 16 16 16 16 15 17 17 17 17 17 17 17 17 17 17 17 14 15 12 12 12 12 15 15 14 13 14 15 15 13 14 15 17 15 16 19 20 20 20
14 15 15 16 16 16 16 16 15 15 15 16 16 16 16 17 17 17 17 17 16 14 14 12 11 13 13 13 13 13 13 13 13 14 14 13 15 16 16 15 17 18 19 21 21
14 15 16 16 16 16 15 15 14 15 13 16 16 16 17 17 16 17 17 16 15 13 12 11 14 14 13 14 13 13 12 13 14 13 13 14 16 16 14 16 16 17 20 21 20
14 15 16 16 16 16 15 15 14 14 11 15 16 16 17 17 16 17 17 17 15 14 12 11 13 14 13 13 13 13 13 14 14 13 14 15 16 19 16 16 14 15 17 19 21
16 15 15 16 16 15 15 15 14 14 16 16 16 17 17 17 17 17 17 16 15 15 14 14 15 15 13 13 13 13 14 14 13 12 13 13 13 19 16 16 15 15 20 20 22
16 16 15 15 16 15 15 15 15 12 16 16 16 15 16 16 16 16 16 16 16 14 12 13 15 16 14 15 14 15 15 14 10 10 11 15 13 18 18 16 17 18 21 22 23
15 15 15 14 15 15 15 15 12 12 14 14 14 14 15 14 15 14 14 14 14 14 13 12 13 14 15 14 15 15 13 11 11 10 13 14 13 18 16 17 17 16 22 23 24
14 13 13 14 14 15 16 12 15 12 11 13 14 13 15 12 14 13 13 12 12 12 10 11 12 15 15 15 15 13 12 10 12 11 12 12 12 17 16 15 18 20 21 22 23
13 13 13 13 14 15 16 9 10 11 11 11 12 12 12 12 12 11 11 12 9 9 10 10 11 13 14 15 16 14 12 14 13 15 13 15 14 17 16 15 14 17 20 21 21
14 13 13 13 14 15 10 10 10 12 11 11 11 12 11 9 10 9 11 9 9 9 9 9 9 12 13 14 14 14 13 12 10 11 12 13 13 14 16 16 14 10 11 12 14
13 13 13 13 14 14 7 9 11 11 12 11 11 11 10 9 9 10 11 8 9 9 9 8 8 11 11 11 10 11 12 11 11 13 12 10 12 15 7 8 10 10 12 12 12
13 9 12 13 10 6 6 7 10 9 10 10 10 9 9 8 8 9 9 8 8 8 8 8 7 7 9 10 10 10 10 10 7 8 6 6 9 9 9 11 11 11 11 11 10
12 11 12 13 5 4 5 7 8 8 7 7 7 8 7 7 7 8 7 8 6 7 7 7 5 4 7 8 8 7 9 9 7 5 6 6 8 11 10 11 11 12 8 8 9
11 6 9 9 6 4 4 6 6 7 6 7 7 6 5 6 7 5 6 7 6 6 8 8 5 5 5 6 6 6 7 7 6 5 6 7 7 9 9 9 10 8 7 7 8
9 3 4 2 3 3 3 4 5 5 5 6 5 4 3 3 4 4 5 5 5 6 6 4 4 5 5 6 6 6 6 6 5 5 5 6 7 8 9 9 9 7 7 8 10
8 6 5 3 2 3 2 4 5 4 4 4 4 3 3 2 3 2 3 3 4 5 4 4 4 4 4 5 5 5 5 6 6 6 6 6 7 8 6 6 7 8 7 6 6
6 5 5 2 2 2 2 4 3 3 4 4 3 2 2 3 4 3 4 3 3 3 3 3 2 1 3 4 4 3 6 6 7 6 7 6 4 3 3 4 5 7 6 6 6
Height
1510 1511 1512 1513 1514 1516 1517 1519 1521 1522 1522 1523 1524 1524 1524 1525 1525 1526 1528 1529 1528 1528 1527 1527 1528 1528 1529 1530 1531 1532 1543 1549 1541 1544 1534 1530 1531 1531 1531 1532 1533 1533 1532 1532 1534
1512 1512 1512 1513 1515 1517 1518 1520 1522 1522 1523 1524 1524 1525 1525 1525 1525 1526 1529 1528 1528 1528 1528 1527 1528 1529 1530 1529 1531 1531 1544 1539 1530 1529 1529 1527 1528 1527 1530 1530 1530 1530 1529 1530 1531
1515 1515 1515 1516 1517 1519 1520 1522 1523 1523 1524 1525 1525 1526 1525 1525 1527 1527 1528 1528 1528 1528 1529 1529 1529 1530 1530 1530 1530 1531 1536 1529 1526 1526 1525 1525 1525 1526 1525 1529 1523 1522 1524 1527 1527
1518 1519 1519 1520 1520 1521 1522 1524 1524 1525 1525 1526 1526 1526 1526 1527 1530 1527 1528 1528 1528 1529 1529 1530 1530 1530 1530 1530 1529 1531 1526 1526 1524 1524 1524 1523 1522 1521 1519 1514 1518 1520 1522 1522 1523
1520 1521 1522 1522 1523 1524 1525 1526 1526 1526 1527 1527 1528 1527 1527 1528 1528 1528 1528 1528 1528 1529 1529 1530 1531 1531 1532 1531 1529 1528 1524 1523 1522 1522 1522 1521 1519 1517 1510 1513 1515 1516 1517 1518 1518
1522 1522 1523 1524 1524 1525 1526 1526 1527 1527 1528 1528 1528 1528 1528 1529 1528 1528 1528 1528 1528 1529 1530 1531 1532 1533 1532 1530 1530 1526 1523 1522 1521 1521 1521 1520 1517 1515 1505 1509 1511 1512 1512 1513 1513
1524 1524 1524 1524 1525 1525 1526 1526 1527 1527 1528 1528 1528 1528 1527 1528 1527 1528 1528 1529 1529 1529 1530 1531 1532 1533 1533 1530 1528 1526 1526 1522 1519 1519 1519 1518 1516 1505 1503 1506 1506 1506 1506 1507 1507
1525 1525 1525 1525 1525 1525 1525 1526 1526 1527 1527 1528 1528 1528 1526 1526 1526 1528 1528 1529 1529 1529 1530 1531 1532 1532 1532 1531 1528 1528 1528 1533 1517 1516 1515 1517 1513 1493 1499 1500 1498 1499 1500 1500 1501
1526 1526 1526 1525 1525 1525 1525 1526 1526 1527 1527 1527 1528 1528 1526 1526 1526 1527 1528 1529 1530 1530 1530 1531 1532 1531 1531 1535 1541 1539 1543 1537 1527 1513 1514 1515 1512 1491 1493 1493 1492 1492 1492 1494 1494
1526 1526 1526 1526 1526 1526 1526 1526 1526 1527 1527 1527 1527 1530 1526 1526 1526 1526 1527 1528 1529 1530 1531 1532 1531 1533 1536 1539 1552 1541 1540 1535 1531 1515 1514 1512 1505 1490 1490 1491 1489 1487 1487 1488 1488
1527 1526 1526 1526 1526 1526 1526 1526 1529 1528 1526 1525 1525 1525 1525 1526 1527 1527 1527 1529 1529 1530 1532 1532 1539 1539 1534 1532 1529 1531 1534 1535 1524 1515 1515 1513 1502 1494 1486 1487 1483 1481 1480 1478 1474
1528 1527 1526 1526 1526 1526 1526 1526 1527 1529 1525 1522 1524 1524 1526 1526 1527 1526 1528 1529 1529 1533 1533 1539 1540 1525 1527 1529 1532 1532 1534 1529 1518 1511 1513 1507 1488 1484 1481 1474 1475 1473 1471 1467 1465
1528 1527 1526 1526 1526 1527 1527 1527 1528 1527 1527 1523 1523 1523 1524 1525 1527 1526 1527 1527 1527 1531 1532 1538 1523 1519 1524 1527 1531 1530 1534 1527 1523 1515 1507 1506 1470 1474 1465 1460 1462 1464 1461 1458 1455
1528 1528 1527 1526 1529 1527 1527 1528 1527 1528 1535 1529 1525 1525 1525 1524 1525 1524 1525 1527 1527 1528 1530 1531 1518 1519 1524 1526 1522 1527 1515 1513 1517 1523 1522 1504 1486 1466 1463 1458 1455 1453 1450 1448 1447
1527 1527 1527 1527 1528 1529 1530 1528 1527 1527 1548 1530 1527 1527 1525 1527 1526 1524 1523 1524 1524 1524 1527 1523 1516 1517 1520 1515 1513 1514 1506 1510 1512 1519 1518 1509 1522 1435 1451 1457 1455 1445 1441 1440 1438
1525 1526 1527 1528 1528 1529 1528 1527 1528 1539 1544 1531 1528 1528 1526 1525 1525 1524 1524 1525 1522 1521 1519 1515 1511 1511 1506 1501 1503 1502 1505 1507 1517 1522 1526 1490 1511 1444 1450 1448 1441 1437 1436 1434 1431
1523 1525 1526 1527 1529 1529 1528 1528 1540 1548 1533 1540 1536 1532 1530 1530 1527 1526 1527 1528 1529 1529 1524 1517 1509 1502 1500 1505 1502 1504 1513 1531 1526 1532 1503 1483 1497 1433 1435 1442 1439 1437 1433 1429 1426
1523 1525 1527 1527 1528 1528 1528 1530 1541 1547 1546 1540 1537 1533 1533 1534 1532 1530 1530 1534 1528 1530 1534 1529 1519 1505 1507 1509 1509 1510 1514 1528 1523 1520 1499 1489 1483 1444 1436 1436 1434 1431 1428 1424 1421
1527 1527 1527 1528 1528 1528 1529 1549 1555 1551 1549 1546 1539 1539 1540 1537 1538 1535 1536 1534 1538 1537 1541 1537 1524 1504 1503 1504 1503 1505 1511 1497 1504 1486 1497 1469 1456 1438 1435 1434 1431 1428 1424 1422 1421
1529 1529 1530 1530 1529 1529 1533 1549 1551 1550 1549 1547 1549 1545 1548 1547 1545 1544 1539 1542 1541 1540 1539 1537 1524 1506 1505 1503 1503 1503 1500 1507 1508 1507 1487 1465 1466 1451 1441 1438 1437 1438 1436 1430 1424
1531 1531 1534 1532 1532 1531 1549 1551 1550 1551 1550 1550 1550 1550 1551 1553 1550 1549 1543 1544 1542 1541 1539 1539 1535 1509 1509 1510 1514 1511 1505 1502 1496 1484 1482 1482 1456 1438 1457 1455 1448 1439 1436 1432 1423
1531 1536 1537 1533 1537 1546 1553 1553 1553 1552 1551 1550 1550 1552 1553 1554 1552 1549 1545 1544 1547 1547 1543 1541 1538 1522 1512 1509 1506 1506 1501 1502 1511 1497 1500 1495 1465 1446 1445 1443 1443 1438 1432 1420 1417
1534 1539 1539 1536 1550 1555 1554 1554 1553 1553 1553 1553 1554 1554 1555 1555 1557 1549 1547 1546 1547 1548 1549 1544 1542 1539 1505 1506 1505 1509 1506 1506 1509 1513 1501 1493 1466 1452 1447 1446 1441 1439 1435 1428 1420
1537 1543 1544 1543 1551 1554 1558 1557 1556 1555 1556 1556 1556 1556 1558 1558 1555 1552 1549 1547 1548 1548 1545 1542 1539 1538 1529 1520 1516 1513 1510 1509 1508 1503 1490 1476 1466 1461 1450 1445 1444 1439 1433 1426 1418
1541 1553 1555 1558 1556 1557 1558 1558 1558 1558 1558 1558 1559 1562 1564 1564 1559 1554 1552 1550 1546 1544 1542 1542 1538 1534 1523 1520 1514 1507 1503 1500 1497 1491 1490 1468 1460 1456 1445 1438 1438 1435 1431 1419 1410
1547 1553 1555 1557 1558 1559 1559 1560 1561 1562 1563 1562 1562 1563 1563 1565 1562 1554 1553 1551 1546 1539 1538 1537 1527 1526 1519 1517 1509 1504 1494 1488 1484 1477 1472 1465 1455 1456 1451 1445 1438 1433 1430 1420 1411
1553 1555 1555 1558 1558 1560 1561 1561 1564 1565 1562 1563 1564 1563 1561 1556 1553 1551 1549 1544 1538 1534 1532 1532 1526 1530 1515 1510 1506 1503 1480 1473 1469 1467 1460 1457 1460 1461 1452 1445 1438 1429 1422 1416 1409
Wind_Speed
4 4 6 6 6 5 7 8 8 8 7 5 4 3 3 5 6 7 6 4 4 5 4 4 5 4 3 1 1 3 4 3 5 6 5 6 7 8 8 7 13 15 12 9 17
5 6 7 7 7 8 9 9 8 7 6 5 2 1 2 4 6 8 4 4 6 5 3 1 2 2 2 1 1 3 3 8 5 5 4 5 10 14 7 9 12 17 20 14 20
12 11 11 10 9 8 8 7 6 6 4 3 1 2 3 2 3 2 6 6 7 6 5 2 1 2 1 1 3 4 5 4 4 9 7 4 7 11 10 5 18 25 29 22 25
14 12 11 10 8 7 7 6 5 4 3 2 2 4 4 1 2 2 1 5 6 6 6 3 2 1 1 3 3 2 8 6 4 7 4 4 4 9 22 26 16 29 24 27 30
13 11 10 8 7 5 5 4 3 3 2 2 4 5 3 2 2 1 3 5 4 4 4 3 2 1 2 3 2 3 4 6 14 11 10 8 11 13 20 31 28 19 20 26 33
10 9 8 7 5 4 4 3 2 1 1 2 4 6 4 2 2 2 5 5 4 3 3 3 1 2 4 4 2 4 7 13 9 12 9 5 8 8 9 25 29 28 27 27 33
7 6 5 4 4 3 3 3 3 2 2 3 5 7 7 5 3 3 3 4 4 4 4 3 3 3 5 5 8 7 6 7 6 6 6 3 10 15 27 29 25 28 33 32 34
4 4 3 3 1 1 2 3 4 4 5 5 7 9 5 5 7 8 7 5 5 6 5 4 3 5 4 7 7 4 2 3 4 3 5 8 15 13 16 24 35 36 33 34 37
4 3 2 1 1 1 1 2 4 5 6 7 8 7 5 4 4 5 7 5 3 3 2 4 3 3 2 4 5 6 5 5 9 11 2 8 9 9 11 17 29 33 39 38 39
3 2 2 2 2 2 3 2 2 4 6 8 10 7 3 2 1 2 3 4 2 2 2 2 1 2 3 4 6 6 5 5 6 3 2 7 15 18 25 16 20 28 32 38 42
3 2 2 2 2 2 2 1 1 3 7 6 2 1 1 1 1 1 1 4 3 2 2 3 3 8 9 7 2 2 3 6 6 4 4 8 17 18 28 17 26 35 35 38 43
5 4 3 1 2 3 4 3 4 4 6 7 14 18 14 3 3 4 5 4 3 2 2 5 7 8 4 3 6 7 7 13 8 7 7 10 21 16 16 16 28 35 40 47 48
5 5 4 1 3 4 5 6 5 7 3 4 2 3 3 9 9 5 8 4 4 4 6 7 8 6 6 2 5 8 7 12 13 10 7 7 26 12 11 22 23 33 43 47 48
6 6 6 2 2 3 2 5 5 8 4 5 4 3 3 3 2 5 10 5 2 5 5 6 6 5 4 7 9 9 11 14 10 2 9 4 18 3 6 12 7 25 36 44 47
5 3 4 3 1 2 3 5 4 2 4 3 2 3 2 1 5 0 4 6 4 4 4 8 3 4 6 8 7 10 7 7 6 5 4 5 4 17 4 5 9 11 31 36 39
5 3 1 2 2 3 5 5 3 5 0 3 3 5 5 1 2 3 1 7 4 3 5 12 6 5 8 7 8 1 2 1 4 4 6 8 8 27 5 8 7 10 23 31 33
3 2 2 2 2 2 4 2 5 4 5 7 4 6 3 5 5 5 4 3 2 7 3 4 6 4 7 5 4 4 4 4 4 2 11 10 9 27 5 2 5 10 31 35 33
9 10 9 7 2 2 3 4 2 4 4 4 5 5 2 7 4 6 3 5 6 2 3 4 7 3 4 1 4 3 8 5 6 4 7 3 9 9 2 9 12 19 26 30 35
9 10 11 10 7 3 1 5 2 2 5 7 8 5 4 6 5 8 5 2 6 8 3 6 6 9 23 9 2 3 3 6 11 22 12 14 17 14 10 11 12 22 32 34 36
7 10 11 8 6 4 5 4 4 3 5 3 2 4 4 7 8 8 3 5 3 9 5 4 14 8 3 12 5 5 3 6 3 9 20 12 7 12 13 16 19 20 29 35 42
2 5 10 9 6 8 4 2 2 6 12 4 2 4 4 4 3 2 6 1 4 8 7 3 5 12 4 3 8 12 13 7 6 8 9 11 9 3 8 11 18 19 32 28 34
5 5 13 6 7 5 3 3 8 7 10 6 4 3 3 5 3 3 4 3 12 11 5 3 5 15 21 16 17 15 18 6 4 6 5 7 10 6 18 25 34 34 35 51 46
5 5 16 6 4 3 4 4 4 6 6 6 5 5 4 2 5 3 4 6 14 13 7 5 3 10 17 3 3 5 11 16 13 7 17 14 11 22 29 34 41 34 24 32 46
4 3 9 13 8 4 3 2 4 6 3 4 2 5 5 2 5 5 5 7 24 22 22 17 4 10 16 18 17 18 20 21 21 14 21 20 22 22 31 28 25 34 35 32 41
7 4 4 3 6 3 1 1 2 5 5 8 4 6 4 4 4 5 8 19 7 16 7 6 8 13 20 20 23 27 27 25 24 23 23 29 30 26 26 30 26 23 34 38 42
6 4 4 3 2 2 3 2 2 3 4 4 2 6 6 3 7 19 14 6 9 8 7 4 15 18 23 21 23 23 26 26 24 24 24 24 27 17 24 29 23 24 28 33 33
10 7 2 4 3 3 1 2 4 3 5 3 8 7 8 14 18 18 24 26 25 19 18 8 5 2 18 17 16 12 15 9 10 15 20 16 5 12 15 20 30 34 32 31 31
Wind_Direction
46 104 130 152 175 178 152 151 156 156 163 177 183 194 214 234 239 240 242 244 247 283 257 240 226 215 218 199 118 119 65 220 218 162 234 187 188 194 212 192 191 202 224 229 195
89 96 112 122 127 141 140 144 150 153 157 167 165 214 251 261 257 250 238 246 252 273 243 215 214 205 197 154 178 111 131 218 211 198 218 217 203 189 176 204 215 223 226 221 201
79 83 90 96 111 122 124 134 142 143 142 139 96 312 291 298 320 333 230 255 271 260 226 222 241 195 217 188 207 162 198 211 249 233 242 234 225 194 177 221 218 224 230 217 209
71 74 78 85 99 108 115 131 132 129 119 81 7 334 319 277 121 32 210 274 266 256 228 230 245 228 236 231 215 250 240 221 264 238 233 223 218 205 208 222 242 242 248 226 215
82 80 81 82 85 91 105 121 120 112 87 32 355 343 330 305 307 302 297 317 261 242 227 223 242 247 257 266 287 218 258 249 244 256 255 256 238 234 237 238 242 245 240 233 227
89 91 93 93 96 105 120 135 144 134 22 354 341 335 335 325 341 286 298 307 272 253 230 228 316 308 290 273 201 306 279 266 275 263 254 252 264 254 252 247 248 249 248 240 236
91 99 103 107 113 133 162 180 200 215 256 295 307 316 291 257 258 259 314 312 264 253 242 251 263 274 328 303 324 301 322 319 253 239 244 240 286 238 253 256 254 247 247 244 240
92 88 83 80 90 174 214 221 229 241 258 281 301 315 277 274 258 257 277 300 276 266 243 250 274 277 260 306 337 356 29 313 300 185 251 160 261 271 271 253 250 249 247 240 239
51 43 46 65 62 325 282 262 254 256 265 277 292 307 289 319 299 262 268 287 271 286 235 250 282 245 257 79 352 2 264 242 311 208 162 193 262 271 259 246 251 252 248 244 244
85 82 65 41 24 6 347 311 269 269 266 272 267 297 282 350 351 306 265 227 262 264 268 252 268 29 33 105 235 224 236 261 254 327 232 258 257 270 267 271 267 266 259 251 248
59 42 32 27 18 31 34 137 263 268 245 239 163 214 44 72 347 309 204 227 226 175 163 47 60 232 210 221 244 273 240 269 262 276 256 248 258 266 274 249 254 260 263 259 253
13 356 343 5 37 91 65 90 49 335 307 267 259 263 248 221 302 245 232 190 173 214 59 17 249 246 198 218 247 257 265 270 278 244 201 270 270 255 261 250 245 252 258 261 262
1 3 360 18 92 76 83 59 17 348 338 330 336 328 344 248 242 267 208 197 190 190 185 176 233 100 155 186 239 241 245 264 262 317 237 283 280 255 239 257 248 247 255 262 263
328 354 8 55 106 90 62 10 355 345 58 324 4 24 10 94 206 258 236 236 208 229 189 228 270 236 234 230 210 268 219 242 256 171 275 118 292 282 282 256 245 240 248 258 263
296 310 5 32 71 67 353 342 339 353 33 341 15 12 316 272 306 6 244 219 234 210 141 252 259 212 221 220 159 235 203 206 214 210 342 183 250 288 45 277 265 264 264 270 269
307 274 295 44 66 46 352 338 340 42 28 351 20 351 358 257 287 318 304 217 271 251 219 247 250 227 223 218 191 224 254 254 62 117 253 214 167 279 234 202 243 270 273 280 286
29 118 138 94 121 355 341 337 32 110 345 348 346 338 331 328 342 18 1 321 247 324 311 329 230 253 246 308 267 171 77 306 304 167 246 162 185 243 286 17 219 263 297 291 291
87 104 90 80 71 5 2 46 75 52 344 353 321 310 59 12 8 341 18 338 31 343 322 307 324 2 13 345 285 208 176 184 256 233 278 27 242 248 287 326 294 272 272 279 288
98 106 76 62 53 36 55 58 71 55 296 326 322 32 346 2 22 9 346 286 47 22 20 326 260 324 318 321 203 311 206 229 254 271 275 266 273 293 274 277 296 286 285 285 297
103 90 54 43 32 39 70 117 128 42 325 350 8 34 344 357 12 16 323 22 24 22 3 315 297 228 318 356 338 277 256 303 295 283 270 265 251 258 303 302 346 359 348 343 341
112 75 31 21 35 59 96 91 55 35 16 13 8 311 22 8 344 290 266 72 23 357 25 313 224 285 360 205 337 316 302 274 290 249 273 275 266 40 62 354 335 324 321 324 332
72 60 3 9 51 37 61 341 352 5 17 358 26 63 38 10 292 260 272 36 43 4 326 309 293 288 286 288 254 261 271 282 277 320 304 288 265 356 336 326 326 322 321 326 326
75 68 30 74 84 11 338 350 40 20 15 16 10 53 10 36 328 280 313 0 16 15 358 329 309 313 300 259 50 14 312 299 286 261 271 279 286 317 312 304 305 307 323 324 321
83 52 34 60 70 98 40 9 334 15 96 7 334 69 22 325 203 288 297 324 332 313 305 304 241 239 272 289 309 295 288 288 294 287 288 269 280 282 285 291 300 319 315 317 319
56 65 30 5 20 58 69 8 357 4 26 27 51 79 55 300 295 257 311 310 294 296 286 353 269 277 279 288 291 288 291 285 272 274 280 288 288 288 290 290 294 304 300 310 312
74 63 49 83 6 22 3 59 48 22 25 322 316 357 349 278 251 293 295 288 279 272 266 230 274 279 283 288 281 288 280 283 280 279 271 274 279 320 343 338 319 315 307 308 311
76 65 46 355 29 37 280 41 93 50 321 259 320 309 279 274 287 292 289 277 258 265 270 271 266 223 284 281 293 294 282 259 269 281 279 282 331 335 338 319 305 303 308 306 313